Weather History for Monument Pass, CO

Change the Weather History Date:

Saturday, December 8, 2012

  Actual Average (KAPA) Record (KAPA)
Temperature  
Mean Temperature 34 °F -  
Max Temperature 50 °F 43 °F 66 °F (1996)
Min Temperature 15 °F 20 °F -3 °F (2013)
Degree Days  
Heating Degree Days 32    
Moisture  
Dew Point 17 °F    
Average Humidity 64    
Maximum Humidity 100    
Minimum Humidity 22    
Precipitation  
Precipitation 0.00 in - - ()
Sea Level Pressure  
Sea Level Pressure 29.73 in    
Wind  
Wind Speed 18 mph (SE)    
Max Wind Speed 25 mph    
Max Gust Speed 32 mph    
Visibility 10 miles    
Events Snow    
Averages and records for this station are not official NWS values.
T = Trace of Precipitation, MM = Missing Value Source: NWS Daily Summary

Daily Weather History Graph

Daily Weather History Graph

Search for Another Location

Airport:

Trip Planner

Search our weather history database for the weather conditions in past years. The results will help you decide how hot, cold, wet, or windy it might be!

Date:

Astronomy

Dec. 08, 2012 Rise Set
Actual Time 7:05 AM MST 4:35 PM MST
Civil Twilight 6:36 AM MST 5:05 PM MST
Nautical Twilight 6:02 AM MST 5:38 PM MST
Astronomical Twilight 5:30 AM MST 6:11 PM MST
Moon 1:35 AM MST (12/8) 1:05 PM MST (12/8)
Length of Visible Light 10h 29m
Length of Day
9h 29m
Waning Crescent, 27% of the Moon is Illuminated
Dec 8
Waning Crescent
Dec 13
New
Dec 19
First Quarter
Dec 28
Full
Jan 4
Last Quarter

Hourly Weather History & Observations

Time (MST) Temp. Windchill Dew Point Humidity Pressure Visibility Wind Dir Wind Speed Gust Speed Precip Events Conditions
12:08 AM 24.8 °F 9.6 °F 17.6 °F 74% 29.83 in 10.0 mi South 23.0 mph 32.2 mph N/A   Clear
12:28 AM 24.8 °F 9.3 °F 17.6 °F 74% 29.83 in 10.0 mi South 24.2 mph 31.1 mph N/A   Clear
12:48 AM 24.8 °F 9.0 °F 17.6 °F 74% 29.82 in 10.0 mi South 25.3 mph 31.1 mph N/A   Clear
1:08 AM 23.0 °F 6.9 °F 17.6 °F 80% 29.81 in 10.0 mi South 24.2 mph 29.9 mph N/A   Clear
1:31 AM 23.0 °F 7.6 °F 17.6 °F 80% 29.81 in 10.0 mi South 21.9 mph 28.8 mph N/A   Clear
1:46 AM 23.0 °F 8.0 °F 19.4 °F 86% 29.81 in 10.0 mi South 20.7 mph 27.6 mph N/A   Clear
2:07 AM 23.0 °F 7.6 °F 19.4 °F 86% 29.81 in 10.0 mi South 21.9 mph 27.6 mph N/A   Clear
2:31 AM 23.0 °F 7.6 °F 17.6 °F 80% 29.79 in 10.0 mi South 21.9 mph 28.8 mph N/A   Clear
2:49 AM 23.0 °F 8.0 °F 17.6 °F 80% 29.79 in 10.0 mi South 20.7 mph 26.5 mph N/A   Clear
3:09 AM 23.0 °F 6.9 °F 17.6 °F 80% 29.77 in 10.0 mi South 24.2 mph 31.1 mph N/A   Clear
3:28 AM 24.8 °F 9.0 °F 17.6 °F 74% 29.77 in 10.0 mi South 25.3 mph 28.8 mph N/A   Clear
3:48 AM 24.8 °F 9.6 °F 19.4 °F 80% 29.76 in 10.0 mi South 23.0 mph 28.8 mph N/A   Clear
4:08 AM 24.8 °F 9.3 °F 19.4 °F 80% 29.76 in 10.0 mi South 24.2 mph - N/A   Clear
4:28 AM 24.8 °F 10.7 °F 19.4 °F 80% 29.76 in 10.0 mi South 19.6 mph 26.5 mph N/A   Clear
4:51 AM 23.0 °F 7.6 °F 17.6 °F 80% 29.74 in 10.0 mi South 21.9 mph 26.5 mph N/A   Clear
5:08 AM 23.0 °F 6.9 °F 17.6 °F 80% 29.73 in 10.0 mi South 24.2 mph 27.6 mph N/A   Clear
5:28 AM 23.0 °F 8.0 °F 17.6 °F 80% 29.73 in 10.0 mi South 20.7 mph - N/A   Clear
5:47 AM 23.0 °F 8.0 °F 17.6 °F 80% 29.73 in 10.0 mi South 20.7 mph - N/A   Clear
6:07 AM 23.0 °F 9.6 °F 17.6 °F 80% 29.73 in 10.0 mi South 16.1 mph - N/A   Clear
6:30 AM 23.0 °F 8.0 °F 17.6 °F 80% 29.71 in 10.0 mi South 20.7 mph - N/A   Clear
6:48 AM 23.0 °F 8.3 °F 17.6 °F 80% 29.71 in 10.0 mi South 19.6 mph - N/A   Clear
7:10 AM 23.0 °F 9.6 °F 17.6 °F 80% 29.71 in 10.0 mi South 16.1 mph - N/A   Clear
7:31 AM 23.0 °F 9.2 °F 17.6 °F 80% 29.70 in 10.0 mi South 17.3 mph - N/A   Clear
7:48 AM 24.8 °F 11.1 °F 19.4 °F 80% 29.71 in 10.0 mi South 18.4 mph 26.5 mph N/A   Clear
8:08 AM 26.6 °F 14.3 °F 19.4 °F 74% 29.71 in 10.0 mi SSW 16.1 mph - N/A   Clear
8:28 AM 28.4 °F 19.1 °F 19.4 °F 69% 29.71 in 10.0 mi SSW 10.4 mph - N/A   Clear
8:47 AM 32.0 °F 23.6 °F 19.4 °F 60% 29.70 in 10.0 mi SSW 10.4 mph - N/A   Clear
9:08 AM 33.8 °F 26.4 °F 19.4 °F 56% 29.69 in 10.0 mi SSW 9.2 mph - N/A   Clear
9:29 AM 37.4 °F 29.8 °F 17.6 °F 45% 29.69 in 10.0 mi WSW 11.5 mph - N/A   Clear
9:48 AM 39.2 °F 31.2 °F 17.6 °F 42% 29.68 in 10.0 mi WSW 13.8 mph - N/A   Clear
10:11 AM 42.8 °F 34.0 °F 15.8 °F 34% 29.68 in 10.0 mi West 20.7 mph 24.2 mph N/A   Clear
10:31 AM 44.6 °F 36.4 °F 14.0 °F 29% 29.67 in 10.0 mi West 20.7 mph 29.9 mph N/A   Clear
10:51 AM 46.4 °F 38.5 °F 14.0 °F 27% 29.66 in 10.0 mi West 21.9 mph 32.2 mph N/A   Clear
11:07 AM 48.2 °F - 14.0 °F 25% 29.65 in 10.0 mi West 21.9 mph 29.9 mph N/A   Clear
11:29 AM 46.4 °F 39.2 °F 12.2 °F 25% 29.64 in 10.0 mi West 18.4 mph 31.1 mph N/A   Clear
11:51 AM 50.0 °F - 12.2 °F 22% 29.63 in 10.0 mi West 15.0 mph 24.2 mph N/A   Clear
12:09 PM 46.4 °F 40.7 °F 14.0 °F 27% 29.63 in 10.0 mi NNW 12.7 mph - N/A   Clear
12:28 PM 46.4 °F 40.1 °F 12.2 °F 25% 29.63 in 10.0 mi NW 15.0 mph 24.2 mph N/A   Clear
12:49 PM 46.4 °F 40.7 °F 12.2 °F 25% 29.62 in 10.0 mi NW 12.7 mph - N/A   Clear
1:11 PM 44.6 °F 38.4 °F 10.4 °F 25% 29.62 in 10.0 mi NNW 12.7 mph - N/A   Clear
1:27 PM 44.6 °F 38.4 °F 10.4 °F 25% 29.62 in 10.0 mi NW 12.7 mph - N/A   Clear
1:51 PM 42.8 °F 36.6 °F 15.8 °F 34% 29.63 in 10.0 mi NE 11.5 mph - N/A   Scattered Clouds
2:07 PM 42.8 °F 37.5 °F 15.8 °F 34% 29.63 in 10.0 mi NE 9.2 mph - N/A   Scattered Clouds
2:28 PM 42.8 °F 38.0 °F 14.0 °F 31% 29.64 in 10.0 mi ENE 8.1 mph - N/A   Scattered Clouds
2:48 PM 41.0 °F 36.4 °F 14.0 °F 33% 29.65 in 10.0 mi East 6.9 mph - N/A   Clear
3:07 PM 41.0 °F 35.2 °F 15.8 °F 36% 29.65 in 10.0 mi ENE 9.2 mph - N/A   Clear
3:27 PM 41.0 °F 35.8 °F 14.0 °F 33% 29.65 in 10.0 mi ENE 8.1 mph - N/A   Clear
3:48 PM 41.0 °F 35.2 °F 15.8 °F 36% 29.66 in 10.0 mi East 9.2 mph - N/A   Scattered Clouds
4:11 PM 37.4 °F 32.1 °F 17.6 °F 45% 29.67 in 10.0 mi East 6.9 mph - N/A   Scattered Clouds
4:31 PM 35.6 °F 29.2 °F 17.6 °F 48% 29.68 in 10.0 mi East 8.1 mph - N/A   Mostly Cloudy
4:49 PM 33.8 °F 27.7 °F 17.6 °F 52% 29.69 in 10.0 mi East 6.9 mph - N/A   Scattered Clouds
5:08 PM 32.0 °F 26.4 °F 17.6 °F 55% 29.70 in 10.0 mi East 5.8 mph - N/A   Scattered Clouds
5:28 PM 30.2 °F 20.2 °F 17.6 °F 60% 29.71 in 10.0 mi ENE 12.7 mph 17.3 mph N/A   Scattered Clouds
5:47 PM 28.4 °F 17.0 °F 19.4 °F 69% 29.71 in 10.0 mi ENE 15.0 mph - N/A   Scattered Clouds
6:09 PM 26.6 °F 14.7 °F 19.4 °F 74% 29.73 in 10.0 mi ENE 15.0 mph 18.4 mph N/A   Clear
6:49 PM 26.6 °F 16.8 °F 21.2 °F 80% 29.74 in 10.0 mi East 10.4 mph - N/A   Clear
7:07 PM 26.6 °F 21.2 °F 19.4 °F 74% 29.76 in 10.0 mi East 4.6 mph - N/A   Clear
7:29 PM 26.6 °F 14.7 °F 19.4 °F 74% 29.76 in 10.0 mi NE 15.0 mph - N/A   Clear
7:51 PM 23.0 °F 13.1 °F 14.0 °F 68% 29.77 in 10.0 mi NE 9.2 mph - N/A   Clear
8:11 PM 23.0 °F 10.6 °F 14.0 °F 68% 29.77 in 10.0 mi NE 13.8 mph 21.9 mph N/A   Scattered Clouds
8:27 PM 21.2 °F 8.3 °F 14.0 °F 74% 29.80 in 10.0 mi NNE 13.8 mph 18.4 mph N/A   Scattered Clouds
8:51 PM 19.4 °F 7.9 °F 17.6 °F 93% 29.80 in 10.0 mi NE 10.4 mph - N/A   Overcast
9:11 PM 19.4 °F 10.4 °F 17.6 °F 93% 29.81 in 10.0 mi NE 6.9 mph - N/A   Overcast
9:29 PM 19.4 °F 8.6 °F 17.6 °F 93% 29.81 in 10.0 mi East 9.2 mph - N/A   Overcast
9:51 PM 17.6 °F 5.0 °F 17.6 °F 100% 29.81 in 3.0 mi East 11.5 mph - N/A   Overcast
10:09 PM 17.6 °F 5.7 °F 17.6 °F 100% 29.79 in 7.0 mi East 10.4 mph - N/A   Overcast
10:29 PM 17.6 °F 5.0 °F 15.8 °F 93% 29.81 in 10.0 mi ENE 11.5 mph - N/A   Overcast
10:49 PM 17.6 °F 5.0 °F 15.8 °F 93% 29.83 in 10.0 mi ENE 11.5 mph - N/A Snow Light Snow
11:07 PM 17.6 °F 4.3 °F 14.0 °F 86% 29.84 in 4.0 mi ENE 12.7 mph - N/A Snow Light Snow
11:28 PM 17.6 °F 1.7 °F 14.0 °F 86% 29.82 in 1.5 mi ENE 18.4 mph - N/A Snow Light Snow
11:51 PM 15.8 °F 3.4 °F 14.0 °F 93% 29.83 in 3.0 mi NE 10.4 mph - N/A Snow Light Snow